Regional Weather Roundup
Issued by NWS

Home | Current Version | Previous Version | Graphics & Text | Print | Product List | Glossary On
Versions: 1 2 3 4 5 6 7 8 9 10 11 12 13 14 15 16 17 18 19 20 21 22 23 24 25 26 27 28 29 30 31 32 33 34 35 36 37 38 39 40 41 42 43 44 45 46 47 48 49 50
000
ASUS43 KMKX 010121
RWRWI

WISCONSIN REGIONAL WEATHER ROUNDUP
NATIONAL WEATHER SERVICE MILWAUKEE/SULLIVAN WI
800 PM CDT MON AUG 31 2015

NOTE: "FAIR" INDICATES FEW OR NO CLOUDS BELOW 12,000 FEET WITH NO
SIGNIFICANT WEATHER AND/OR OBSTRUCTIONS TO VISIBILITY.

WIZ001-002-006>008-014>016-023>028-010200-
NORTHWEST WISCONSIN

CITY           SKY/WX    TMP DP  RH WIND       PRES   REMARKS
SUPERIOR ARPT  CLEAR     74  70  86 S5        29.84S
ASHLAND        CLEAR     74  70  87 S9        29.88R
HAYWARD        CLEAR     74  69  85 S8        29.92R
SIREN          CLEAR     76  69  80 S3        29.90R
CUMBERLAND     CLOUDY    72  70  94 S5        29.93R
RICE LAKE      PTCLDY    74  70  88 SE6       29.93S
CHETEK         CLEAR    N/A N/A N/A SE6       29.92S
LADYSMITH      CLEAR     73  69  89 SE5       29.96S
EAU CLAIRE     CLEAR     76  70  82 S6        29.92S
MENOMONIE      CLEAR     75  71  87 SE6       29.92S
NEW RICHMOND   PTCLDY    76  69  79 S5        29.91R
OSCEOLA        CLEAR     76  73  90 SE6       29.92R
$$

WIZ003>005-009-010-017-018-010200-
NORTH CENTRAL WISCONSIN

CITY           SKY/WX    TMP DP  RH WIND       PRES   REMARKS
MANITOWISH WTR CLEAR     68  66  93 S5        29.97S
ARBOR VITAE    CLEAR     70  67  89 S6        29.98S
WOODRUFF       CLEAR     70  67  89 S6        29.98S
RHINELANDER    CLEAR     70  65  84 S3        29.99F
EAGLE RIVER    CLEAR     69  62  78 SW3       29.99R
LAND O LAKES   CLEAR     71  64  77 SW8       29.99R
PHILLIPS       CLEAR     70  67  92 S7        29.96S
TOMAHAWK       CLEAR     66  64  92 CALM      29.99S FOG
MEDFORD        CLEAR     69  68  97 S5        29.98S
MERRILL        CLEAR     71  69  93 SE3       29.99S
$$

WIZ029-030-035-036-043>047-010200-
CENTRAL WISCONSIN

CITY           SKY/WX    TMP DP  RH WIND       PRES   REMARKS
WAUSAU         CLEAR     72  68  87 CALM      29.97F
MOSINEE        NOT AVBL
MARSHFIELD     CLEAR     71  66  84 S6        29.98S
STEVENS POINT  CLEAR     71  66  86 S3        29.99S
WAUPACA        CLEAR     74  71  92 CALM      29.99R
WAUTOMA        CLEAR     72  72 100 CALM      29.99S
WISC RAPIDS    CLEAR     72  67  84 S3        29.99S
CAMP DOUGLAS   PTCLDY    73  73 100 S3        29.97F
$$

WIZ011>013-019>022-031-037>040-048>050-010200-
NORTHEAST WISCONSIN

CITY           SKY/WX    TMP DP  RH WIND       PRES   REMARKS
ANTIGO         CLEAR     67  65  94 S5        30.01S
SHAWANO        CLEAR     74  69  84 CALM      29.98S
OCONTO         CLEAR     70  70 100 CALM      29.97S
STURGEON BAY   CLEAR     66  63  88 S7        30.02R
GREEN BAY      CLEAR     70  68  93 S5        29.99R
MANITOWOC      CLEAR     66  64  93 MISG      30.01R FOG
APPLETON       PTCLDY    72  66  83 VRB5      29.99R
CLINTONVILLE   CLEAR     70  66  88 CALM      29.98S
OSHKOSH        CLEAR     70  67  90 S5        30.00R
$$

WIZ032>034-041-042-053>061-010200-
SOUTHWEST WISCONSIN

CITY           SKY/WX    TMP DP  RH WIND       PRES   REMARKS
LA CROSSE      CLEAR     78  70  76 SE8       29.93S HX  80
SPARTA         CLEAR     75  67  76 SE3       29.97S
VIROQUA          N/A     73  71  92 SE6       29.99R
BOSCOBEL       CLEAR     78  71  79 CALM      29.97S HX  80
PRAIRIE DU CHI CLEAR     77  70  78 E3        29.96R
PLATTEVILLE    CLEAR     75  72  88 SE6       30.00S
$$

WIZ056-057-062-063-064-067-068-010200-
SOUTH CENTRAL WISCONSIN

CITY           SKY/WX    TMP DP  RH WIND       PRES   REMARKS
REEDSBURG      CLEAR     74  69  83 CALM      29.98S
BARABOO/DELLS  CLEAR     73  66  77 S3        29.99S
LONE ROCK      CLEAR     73  69  87 CALM      29.99S
MINERAL POINT  CLEAR     75  70  83 SE5       30.01
MADISON        CLEAR     73  68  84 CALM      30.00S
MIDDLETON      CLEAR     74  66  75 CALM      30.00F
WATERTOWN      CLEAR     71  71 100 CALM      30.00F
MONROE         CLEAR     77  68  73 S5        30.01S
JANESVILLE     CLEAR     79  70  73 CALM      30.00S HX  81
$$

WIZ051-052-058>065-066-070>072-010200-
SOUTHEAST WISCONSIN

CITY           SKY/WX    TMP DP  RH WIND       PRES   REMARKS
MILWAUKEE      MOCLDY    71  66  84 S8        30.02R
WAUKESHA       CLEAR     72  66  83 SW6       30.03
MILWAUKEE/TIMM CLEAR     75  64  69 CALM      30.02R
RACINE         LGT RAIN  70  65  84 S6        30.04R
BURLINGTON     CLEAR     70  68  94 CALM      30.02R
KENOSHA        CLEAR     72  66  81 SE6       30.03R
FOND DU LAC    CLEAR     71  68  90 S5        30.00S
SHEBOYGAN      CLEAR     68  65  90 S5        30.01S
WEST BEND      CLEAR     70  64  83 CALM      30.02R
JUNEAU         CLEAR     73  68  84 CALM      30.02S
$$

LSZ147-162-010200-
LAKE SUPERIOR

STATION/POSITION TIME  TEMP    WIND        PRES    WAVE
                       AIR SEA DIR/SP/G            HT/PER
                 (UTC) (F)     (DEG/KT/KT) (MB)    (FT/S)
W MID LAKE BUOY  0050   62 56  210/ 10/ 10 1011.0R   1
DEVILS ISLAND    0100   75     200/  9/ 13 1010.6R
PORT WING        0040   76     180/  5/  6 1011.2R
SAXON HARBOR     0000   77     200/  7/ 14 1010.8S
$$

LMZ867-665-643>646-010200-
LAKE MICHIGAN

STATION/POSITION TIME  TEMP    WIND        PRES    WAVE
                       AIR SEA DIR/SP/G            HT/PER
                 (UTC) (F)     (DEG/KT/KT) (MB)    (FT/S)
CHAMBERS ISLAND  0000   72     180/  6/ 12 1014.6S
S GREEN BAY BUOY 0100   67 64  180/  6/  8 1016.5R
N MID LAKE BUOY  0050   65 65  200/ 16/ 17 1014.9R   2/ 4
NORTHPORT PIER   0100   63     160/  4/ 15 1014.9R
KEWAUNEE LAKESHO 0000   53     170/ 11/ 11 1014.8S
SHEBOYGAN LAKESH 0100   66     190/ 12/ 13 1016.5R
PORT WASHINGTON  0000   60     190/  1/  3 1016.9
ATWATER BUOY     0100   58 52  160/  8/  8 1017.7R
MILWAUKEE LAKESH 0010   63     140/ 10/ 11   N/A
S MID LAKE BUOY  0050   70 70  130/  6/  6 1016.4R   0
KENOSHA   LAKESH 0100   68     180/  5/  7 1016.3R
$$

TC  - TEMPERATURE IN CELSIUS
VSB - VISIBILITY IN STATUTE MILES
WCI - WIND CHILL INDEX
HX  - HEAT INDEX



USA.gov is the U.S. government's official web portal to all federal, state and local government web resources and services.